STARLINK-3846 (52647 NORAD) Tracking and Keplerian Element Data

This shows tracking and keplerian element data for the satellite.

Feedback or suggestion? Click here.




ElementValue
Catalog52647
NameSTARLINK-3846
Epoch Orbit130
Epoch Day167.08334491
Epoch Year2022
RAAN279.981
Inclination53.2142
Eccentricity0.000175
Argument of Perigee38.815
Mean Anonmoly7.3977
Mean Motion15.73210603
Decay Rate1.111E-05
L11 52647U 22052BB 22167.08334491 .00001111 00000+0 12329-4 0 9999
L22 52647 53.2142 279.9810 0001750 38.8150 7.3977 15.73210603 1302

Live tracking and technical data element details for STARLINK-3846 (NORAD 52647). STARLINK-3846 can be tracked NOW for your location showing map with azimuth and elevation plus other details from your city location.

Track the satellite on the map from your city or location and see movement details for azimuth, elevation, latitude, longitude, range, height, and movement on the map or in text.







IsCatalogInMostPopularTable: catalog: 52647, numindb: 1
Update: records affected: 1



GetName: 52647 STARLINK-3846

Hit Count: updated at: Mon, 27 Jun 2022 05:28:14 GMT